UPS707 GOBD-GCXO

Flight info

Callsign UPS707
Flight time 2h 5m
Altitude 35000
Route LIMAX1B LIMAX UB600 PE/N0459F360 DCT LOLOS/N0459F350 L660 DKH M660 ROTUM Z353 ODEGI/N0455F360 N873 LOMAS DCT COSSE
Aircraft B738/M-SDE2E3FGHIRWXY/LB1

Departure

Time 2026-05-08 20:04
Airport Blaise Diagne International Airport (GOBD)

Arrival

Time 2026-05-08 22:10
Airport Tenerife Norte-Ciudad de La Laguna Airport (GCXO)
Time Latitude Longitude Altitude Speed Heading
2026-05-08 19:32 14.66559 -17.06871 295 ft 0 kts 180°
2026-05-08 19:52 14.66579 -17.06871 292 ft 4 kts 181°
2026-05-08 19:53 14.66606 -17.06869 291 ft 4 kts 186°
2026-05-08 19:53 14.66633 -17.06865 295 ft 4 kts 195°
2026-05-08 19:53 14.66657 -17.06855 297 ft 4 kts 226°
2026-05-08 19:53 14.66665 -17.06842 293 ft 0 kts 270°
2026-05-08 19:58 14.66664 -17.06860 292 ft 5 kts 270°
2026-05-08 19:59 14.66665 -17.06894 291 ft 5 kts 270°
2026-05-08 19:59 14.66665 -17.06955 291 ft 9 kts 270°
2026-05-08 19:59 14.66665 -17.07022 291 ft 10 kts 270°
2026-05-08 19:59 14.66636 -17.07079 295 ft 9 kts 206°
2026-05-08 20:00 14.66563 -17.07087 294 ft 12 kts 180°
2026-05-08 20:00 14.66500 -17.07085 294 ft 15 kts 178°
2026-05-08 20:00 14.66391 -17.07085 291 ft 17 kts 180°
2026-05-08 20:00 14.66267 -17.07084 294 ft 18 kts 179°
2026-05-08 20:01 14.66146 -17.07082 289 ft 17 kts 181°
2026-05-08 20:01 14.66025 -17.07081 286 ft 19 kts 179°
2026-05-08 20:01 14.65893 -17.07080 285 ft 19 kts 179°
2026-05-08 20:01 14.65765 -17.07079 283 ft 18 kts 180°
2026-05-08 20:02 14.65641 -17.07076 281 ft 17 kts 178°
2026-05-08 20:02 14.65535 -17.07100 277 ft 14 kts 237°
2026-05-08 20:02 14.65528 -17.07196 277 ft 13 kts 270°
2026-05-08 20:02 14.65583 -17.07263 279 ft 13 kts 341°
2026-05-08 20:03 14.65640 -17.07268 280 ft 3 kts 359°
2026-05-08 20:03 14.65658 -17.07268 280 ft 2 kts 359°
2026-05-08 20:03 14.65674 -17.07268 281 ft 2 kts 359°
2026-05-08 20:03 14.65691 -17.07269 281 ft 3 kts 359°
2026-05-08 20:04 14.65943 -17.07271 282 ft 79 kts 359°
2026-05-08 20:04 14.66754 -17.07278 299 ft 152 kts 360°
2026-05-08 20:04 14.67900 -17.07265 1021 ft 162 kts 359°
2026-05-08 20:04 14.68968 -17.07262 2262 ft 154 kts 359°
2026-05-08 20:05 14.70093 -17.07273 2851 ft 176 kts
2026-05-08 20:05 14.71423 -17.07288 3092 ft 207 kts 359°
2026-05-08 20:05 14.72939 -17.07307 3307 ft 228 kts 359°
2026-05-08 20:05 14.74543 -17.07327 3799 ft 236 kts 359°
2026-05-08 20:06 14.76193 -17.07348 4412 ft 236 kts 359°
2026-05-08 20:06 14.77866 -17.07370 4867 ft 249 kts 360°
2026-05-08 20:06 14.79683 -17.07392 5180 ft 271 kts 360°
2026-05-08 20:06 14.81572 -17.07415 5994 ft 273 kts 360°
2026-05-08 20:07 14.83478 -17.07437 6787 ft 275 kts
2026-05-08 20:07 14.85412 -17.07455 7492 ft 281 kts
2026-05-08 20:07 14.87387 -17.07472 8213 ft 287 kts
2026-05-08 20:07 14.89404 -17.07491 8903 ft 293 kts
2026-05-08 20:08 14.91464 -17.07510 9606 ft 300 kts
2026-05-08 20:08 14.93567 -17.07530 10252 ft 307 kts
2026-05-08 20:08 14.95781 -17.07548 10456 ft 331 kts
2026-05-08 20:08 14.98155 -17.07568 10628 ft 353 kts
2026-05-08 20:09 15.00671 -17.07591 10935 ft 368 kts
2026-05-08 20:09 15.03248 -17.07617 11527 ft 373 kts
2026-05-08 20:09 15.05869 -17.07645 12045 ft 381 kts
2026-05-08 20:09 15.08513 -17.07671 12812 ft 379 kts
2026-05-08 20:10 15.11165 -17.07697 13491 ft 383 kts 360°
2026-05-08 20:10 15.13856 -17.07722 13992 ft 390 kts 359°
2026-05-08 20:10 15.16572 -17.07749 14655 ft 389 kts 359°
2026-05-08 20:10 15.19290 -17.07777 15230 ft 393 kts 359°
2026-05-08 20:11 15.22009 -17.07804 15754 ft 397 kts 359°
2026-05-08 20:11 15.24776 -17.07830 16361 ft 399 kts 359°
2026-05-08 20:11 15.27564 -17.07855 16862 ft 404 kts 358°
2026-05-08 20:11 15.30379 -17.07881 17488 ft 404 kts 358°
2026-05-08 20:12 15.33199 -17.07908 18047 ft 407 kts 358°
2026-05-08 20:12 15.36052 -17.08085 18404 ft 413 kts 351°
2026-05-08 20:12 15.38897 -17.08539 18874 ft 414 kts 347°
2026-05-08 20:12 15.41745 -17.09098 19264 ft 419 kts 347°
2026-05-08 20:13 15.44618 -17.09687 19660 ft 422 kts 348°
2026-05-08 20:13 15.47501 -17.10268 20208 ft 422 kts 347°
2026-05-08 20:13 15.50393 -17.10831 20610 ft 426 kts 347°
2026-05-08 20:13 15.53314 -17.11386 21079 ft 427 kts 348°
2026-05-08 20:14 15.56236 -17.11928 21586 ft 427 kts 348°
2026-05-08 20:14 15.59178 -17.12470 21902 ft 433 kts 348°
2026-05-08 20:14 15.62161 -17.13017 22262 ft 436 kts 349°
2026-05-08 20:14 15.65156 -17.13562 22662 ft 439 kts 349°
2026-05-08 20:15 15.68171 -17.14108 23044 ft 441 kts 349°
2026-05-08 20:15 15.71202 -17.14655 23461 ft 443 kts 349°
2026-05-08 20:15 15.74245 -17.15203 23733 ft 447 kts 348°
2026-05-08 20:15 15.77327 -17.15759 23964 ft 450 kts 348°
2026-05-08 20:16 15.80408 -17.16314 24348 ft 450 kts 348°
2026-05-08 20:16 15.83502 -17.16872 24636 ft 452 kts 347°
2026-05-08 20:16 15.86610 -17.17434 24918 ft 454 kts 347°
2026-05-08 20:16 15.89726 -17.18000 25268 ft 454 kts 347°
2026-05-08 20:17 15.92844 -17.18567 25553 ft 456 kts 347°
2026-05-08 20:17 15.95981 -17.19139 25830 ft 458 kts 347°
2026-05-08 20:17 15.99130 -17.19712 26115 ft 460 kts 347°
2026-05-08 20:17 16.02284 -17.20285 26416 ft 461 kts 347°
2026-05-08 20:18 16.05450 -17.20861 26695 ft 462 kts 347°
2026-05-08 20:18 16.08622 -17.21437 26952 ft 464 kts 347°
2026-05-08 20:18 16.11814 -17.22017 27201 ft 466 kts 347°
2026-05-08 20:18 16.15019 -17.22599 27450 ft 468 kts 346°
2026-05-08 20:19 16.18232 -17.23183 27681 ft 470 kts 346°
2026-05-08 20:19 16.21460 -17.23770 27926 ft 471 kts 346°
2026-05-08 20:19 16.24692 -17.24358 28159 ft 473 kts 346°
2026-05-08 20:19 16.27943 -17.24949 28383 ft 475 kts 346°
2026-05-08 20:20 16.31205 -17.25543 28606 ft 476 kts 346°
2026-05-08 20:20 16.34471 -17.26137 28873 ft 477 kts 346°
2026-05-08 20:20 16.37739 -17.26732 29167 ft 477 kts 346°
2026-05-08 20:20 16.41015 -17.27327 29374 ft 478 kts 346°
2026-05-08 20:21 16.44299 -17.27919 29555 ft 481 kts 346°
2026-05-08 20:21 16.47599 -17.28512 29792 ft 481 kts 346°
2026-05-08 20:21 16.50891 -17.29108 30108 ft 480 kts 346°
2026-05-08 20:21 16.54175 -17.29708 30390 ft 478 kts 346°
2026-05-08 20:22 16.57453 -17.30308 30601 ft 479 kts 345°
2026-05-08 20:22 16.60744 -17.30911 30792 ft 480 kts 345°
2026-05-08 20:22 16.64035 -17.31513 31021 ft 481 kts 345°
2026-05-08 20:22 16.67325 -17.32113 31330 ft 479 kts 346°
2026-05-08 20:23 16.70599 -17.32711 31704 ft 476 kts 345°
2026-05-08 20:23 16.73857 -17.33305 31956 ft 477 kts 346°
2026-05-08 20:23 16.77193 -17.33584 32094 ft 486 kts 356°
2026-05-08 20:23 16.80581 -17.33413 32315 ft 489 kts 360°
2026-05-08 20:24 16.83932 -17.33123 32574 ft 490 kts
2026-05-08 20:24 16.87326 -17.32795 32806 ft 490 kts
2026-05-08 20:24 16.90726 -17.32477 33028 ft 491 kts
2026-05-08 20:24 16.94132 -17.32183 33255 ft 492 kts 359°
2026-05-08 20:25 16.97544 -17.31913 33499 ft 491 kts 359°
2026-05-08 20:25 17.00940 -17.31663 34001 ft 484 kts
2026-05-08 20:25 17.04253 -17.31425 34725 ft 471 kts
2026-05-08 20:25 17.07514 -17.31196 35057 ft 469 kts
2026-05-08 20:26 17.10774 -17.30971 35204 ft 471 kts
2026-05-08 20:26 17.14057 -17.30746 35311 ft 474 kts
2026-05-08 20:26 17.17353 -17.30518 35438 ft 476 kts
2026-05-08 20:26 17.20662 -17.30288 35629 ft 476 kts
2026-05-08 20:27 17.23964 -17.30056 35883 ft 475 kts
2026-05-08 20:27 17.27264 -17.29823 35979 ft 477 kts
2026-05-08 20:27 17.33886 -17.29356 35972 ft 476 kts
2026-05-08 20:28 17.40464 -17.28890 35975 ft 472 kts
2026-05-08 20:28 17.47002 -17.28428 35979 ft 469 kts
2026-05-08 20:29 17.53505 -17.27969 35990 ft 468 kts
2026-05-08 20:29 17.60001 -17.27511 35988 ft 468 kts
2026-05-08 20:30 17.66500 -17.27052 36007 ft 468 kts
2026-05-08 20:30 17.73012 -17.26591 35998 ft 469 kts
2026-05-08 20:31 17.79528 -17.26129 35988 ft 470 kts
2026-05-08 20:31 17.86045 -17.25667 35994 ft 469 kts
2026-05-08 20:32 17.92563 -17.25205 35988 ft 469 kts
2026-05-08 20:32 17.99073 -17.24743 36007 ft 469 kts
2026-05-08 20:33 18.05570 -17.24283 36000 ft 467 kts
2026-05-08 20:33 18.12049 -17.23822 35998 ft 465 kts
2026-05-08 20:34 18.18492 -17.23363 35996 ft 463 kts
2026-05-08 20:35 18.28119 -17.22675 35996 ft 463 kts
2026-05-08 20:35 18.34548 -17.22217 36005 ft 463 kts
2026-05-08 20:36 18.40974 -17.21759 35994 ft 463 kts
2026-05-08 20:36 18.47405 -17.21300 35992 ft 463 kts
2026-05-08 20:37 18.53832 -17.20837 36000 ft 462 kts 360°
2026-05-08 20:37 18.60244 -17.20374 36002 ft 462 kts
2026-05-08 20:38 18.66649 -17.19913 36011 ft 461 kts
2026-05-08 20:38 18.73046 -17.19454 36000 ft 461 kts
2026-05-08 20:39 18.79435 -17.18995 35999 ft 460 kts
2026-05-08 20:39 18.85825 -17.18531 35998 ft 460 kts
2026-05-08 20:40 18.92201 -17.18071 35999 ft 459 kts
2026-05-08 20:40 18.98538 -17.17616 36016 ft 459 kts
2026-05-08 20:41 19.04915 -17.17154 36006 ft 460 kts
2026-05-08 20:41 19.11294 -17.16691 36007 ft 460 kts
2026-05-08 20:42 19.17673 -17.16228 36007 ft 460 kts
2026-05-08 20:42 19.24057 -17.15765 36010 ft 459 kts
2026-05-08 20:43 19.30435 -17.15303 36007 ft 460 kts
2026-05-08 20:43 19.36817 -17.14839 36010 ft 460 kts
2026-05-08 20:44 19.43197 -17.14376 36013 ft 460 kts
2026-05-08 20:44 19.49581 -17.13911 36013 ft 460 kts
2026-05-08 20:45 19.55959 -17.13447 36013 ft 460 kts
2026-05-08 20:45 19.61264 -17.13061 36013 ft 460 kts
2026-05-08 20:46 19.67644 -17.12596 36020 ft 460 kts
2026-05-08 20:46 19.74024 -17.12130 36012 ft 460 kts
2026-05-08 20:47 19.80404 -17.11665 36016 ft 460 kts
2026-05-08 20:47 19.86784 -17.11199 36020 ft 459 kts
2026-05-08 20:48 19.93158 -17.10733 36022 ft 459 kts
2026-05-08 20:48 19.99537 -17.10266 36029 ft 459 kts
2026-05-08 20:49 20.05910 -17.09799 36020 ft 459 kts
2026-05-08 20:49 20.12290 -17.09331 36025 ft 459 kts
2026-05-08 20:50 20.18664 -17.08864 36029 ft 459 kts
2026-05-08 20:50 20.25034 -17.08396 36030 ft 459 kts
2026-05-08 20:51 20.31410 -17.07928 36036 ft 459 kts
2026-05-08 20:51 20.37786 -17.07459 36029 ft 459 kts
2026-05-08 20:52 20.44117 -17.06993 36039 ft 459 kts
2026-05-08 20:52 20.50490 -17.06523 36034 ft 459 kts
2026-05-08 20:53 20.56864 -17.06054 36035 ft 459 kts
2026-05-08 20:53 20.63235 -17.05583 36035 ft 459 kts
2026-05-08 20:54 20.69610 -17.05113 36033 ft 459 kts
2026-05-08 20:54 20.75980 -17.04642 36028 ft 459 kts
2026-05-08 20:55 20.82351 -17.04170 36022 ft 459 kts
2026-05-08 20:55 20.88719 -17.03698 36023 ft 459 kts
2026-05-08 20:56 20.94998 -17.02263 36028 ft 467 kts 15°
2026-05-08 20:56 21.01095 -16.99827 36018 ft 468 kts 17°
2026-05-08 20:57 21.07187 -16.97360 36024 ft 468 kts 17°
2026-05-08 20:57 21.13293 -16.94938 36050 ft 468 kts 16°
2026-05-08 20:58 21.19406 -16.92540 36052 ft 468 kts 16°
2026-05-08 20:58 21.25525 -16.90143 36046 ft 468 kts 16°
2026-05-08 20:59 21.31645 -16.87742 36049 ft 469 kts 16°
2026-05-08 20:59 21.37778 -16.85333 36050 ft 469 kts 16°
2026-05-08 21:00 21.43869 -16.82937 36052 ft 470 kts 16°
2026-05-08 21:00 21.50004 -16.80522 36055 ft 470 kts 16°
2026-05-08 21:01 21.56142 -16.78103 36055 ft 470 kts 16°
2026-05-08 21:01 21.62284 -16.75681 36059 ft 471 kts 15°
2026-05-08 21:02 21.68434 -16.73253 36052 ft 471 kts 15°
2026-05-08 21:02 21.74590 -16.70820 36055 ft 471 kts 15°
2026-05-08 21:03 21.80749 -16.68384 36055 ft 472 kts 15°
2026-05-08 21:03 21.86914 -16.65948 36058 ft 472 kts 15°
2026-05-08 21:04 21.93094 -16.63544 36074 ft 472 kts 15°
2026-05-08 21:04 21.99280 -16.61146 36063 ft 473 kts 15°
2026-05-08 21:05 22.05469 -16.58740 36056 ft 473 kts 15°
2026-05-08 21:05 22.11664 -16.56327 36059 ft 474 kts 15°
2026-05-08 21:06 22.17866 -16.53906 36060 ft 474 kts 15°
2026-05-08 21:06 22.24068 -16.51483 36059 ft 474 kts 15°
2026-05-08 21:07 22.30273 -16.49057 36068 ft 475 kts 14°
2026-05-08 21:07 22.36440 -16.46644 36063 ft 475 kts 14°
2026-05-08 21:08 22.42689 -16.44196 36060 ft 475 kts 14°
2026-05-08 21:08 22.48899 -16.41761 36062 ft 475 kts 14°
2026-05-08 21:09 22.55066 -16.39341 36064 ft 474 kts 14°
2026-05-08 21:09 22.61274 -16.36902 36075 ft 475 kts 14°
2026-05-08 21:10 22.67480 -16.34462 36069 ft 475 kts 14°
2026-05-08 21:10 22.73692 -16.32017 36068 ft 475 kts 14°
2026-05-08 21:11 22.79903 -16.29571 36072 ft 475 kts 14°
2026-05-08 21:11 22.86115 -16.27121 36066 ft 475 kts 14°
2026-05-08 21:12 22.92332 -16.24668 36085 ft 476 kts 13°
2026-05-08 21:12 22.98557 -16.22208 36079 ft 476 kts 13°
2026-05-08 21:13 23.04785 -16.19745 36069 ft 476 kts 14°
2026-05-08 21:13 23.11017 -16.17277 36068 ft 477 kts 14°
2026-05-08 21:14 23.17248 -16.14808 36079 ft 477 kts 14°
2026-05-08 21:14 23.23481 -16.12335 36098 ft 477 kts 13°
2026-05-08 21:15 23.29722 -16.09857 36074 ft 478 kts 13°
2026-05-08 21:15 23.35968 -16.07374 36073 ft 478 kts 13°
2026-05-08 21:16 23.42217 -16.04888 36075 ft 478 kts 13°
2026-05-08 21:16 23.48464 -16.02400 36074 ft 478 kts 13°
2026-05-08 21:17 23.54705 -15.99911 36099 ft 478 kts 13°
2026-05-08 21:17 23.60960 -15.97415 36081 ft 479 kts 13°
2026-05-08 21:18 23.67215 -15.94915 36069 ft 479 kts 13°
2026-05-08 21:18 23.73477 -15.92449 36047 ft 476 kts
2026-05-08 21:18 23.76665 -15.91646 36039 ft 465 kts 359°
2026-05-08 21:19 23.79870 -15.91282 36059 ft 462 kts 357°
2026-05-08 21:19 23.86230 -15.90692 36054 ft 462 kts 357°
2026-05-08 21:20 23.92639 -15.90081 36075 ft 463 kts 357°
2026-05-08 21:20 23.99051 -15.89425 36077 ft 463 kts 358°
2026-05-08 21:21 24.05466 -15.88748 36074 ft 463 kts 358°
2026-05-08 21:21 24.11883 -15.88068 36077 ft 463 kts 358°
2026-05-08 21:22 24.18302 -15.87389 36098 ft 464 kts 357°
2026-05-08 21:22 24.24727 -15.86710 36087 ft 464 kts 357°
2026-05-08 21:23 24.31155 -15.86030 36075 ft 464 kts 357°
2026-05-08 21:23 24.37584 -15.85349 36076 ft 464 kts 357°
2026-05-08 21:24 24.44007 -15.84668 36085 ft 464 kts 357°
2026-05-08 21:24 24.50429 -15.83986 36113 ft 464 kts 357°
2026-05-08 21:25 24.56864 -15.83303 36085 ft 464 kts 357°
2026-05-08 21:25 24.63289 -15.82619 36081 ft 464 kts 357°
2026-05-08 21:26 24.69716 -15.81935 36084 ft 464 kts 357°
2026-05-08 21:26 24.76142 -15.81250 36080 ft 464 kts 357°
2026-05-08 21:27 24.82565 -15.80564 36091 ft 464 kts 356°
2026-05-08 21:27 24.88991 -15.79878 36084 ft 464 kts 356°
2026-05-08 21:28 24.95376 -15.79195 36084 ft 464 kts 356°
2026-05-08 21:28 25.01722 -15.79106 36085 ft 446 kts 342°
2026-05-08 21:29 25.07684 -15.80595 36083 ft 438 kts 337°
2026-05-08 21:29 25.13608 -15.82213 36085 ft 439 kts 336°
2026-05-08 21:30 25.19542 -15.83803 36081 ft 439 kts 337°
2026-05-08 21:30 25.25486 -15.85369 36084 ft 439 kts 337°
2026-05-08 21:31 25.31424 -15.86927 36087 ft 439 kts 337°
2026-05-08 21:31 25.37358 -15.88484 36083 ft 438 kts 337°
2026-05-08 21:32 25.43297 -15.90045 36086 ft 439 kts 336°
2026-05-08 21:32 25.49350 -15.91228 36081 ft 453 kts 348°
2026-05-08 21:33 25.55742 -15.90769 36088 ft 463 kts 355°
2026-05-08 21:33 25.62154 -15.90063 36081 ft 462 kts 355°
2026-05-08 21:34 25.67469 -15.89500 36085 ft 462 kts 355°
2026-05-08 21:34 25.74904 -15.88754 36091 ft 461 kts 354°
2026-05-08 21:35 25.81295 -15.88128 36070 ft 461 kts 354°
2026-05-08 21:35 25.86648 -15.87605 36087 ft 461 kts 354°
2026-05-08 21:36 25.93030 -15.86979 36085 ft 460 kts 354°
2026-05-08 21:36 25.99409 -15.86352 36120 ft 460 kts 354°
2026-05-08 21:37 26.05795 -15.85723 36095 ft 461 kts 354°
2026-05-08 21:37 26.12180 -15.85094 36082 ft 461 kts 354°
2026-05-08 21:38 26.18565 -15.84463 36078 ft 461 kts 354°
2026-05-08 21:38 26.24948 -15.83832 36077 ft 460 kts 354°
2026-05-08 21:39 26.31291 -15.83204 36092 ft 461 kts 354°
2026-05-08 21:39 26.37680 -15.82572 36083 ft 461 kts 354°
2026-05-08 21:40 26.44067 -15.81938 36071 ft 461 kts 354°
2026-05-08 21:40 26.50449 -15.81304 36072 ft 460 kts 354°
2026-05-08 21:41 26.60014 -15.80353 36099 ft 460 kts 353°
2026-05-08 21:41 26.66396 -15.79720 35836 ft 464 kts 354°
2026-05-08 21:42 26.69629 -15.79403 35278 ft 466 kts 354°
2026-05-08 21:42 26.72852 -15.79081 34664 ft 465 kts 354°
2026-05-08 21:42 26.76076 -15.78758 34011 ft 466 kts 354°
2026-05-08 21:42 26.79316 -15.78434 33329 ft 466 kts 354°
2026-05-08 21:43 26.82526 -15.78109 32855 ft 461 kts 354°
2026-05-08 21:43 26.85710 -15.77786 32365 ft 457 kts 354°
2026-05-08 21:43 26.88867 -15.77466 31897 ft 453 kts 354°
2026-05-08 21:43 26.91993 -15.77151 31435 ft 449 kts 354°
2026-05-08 21:44 26.95091 -15.76840 30981 ft 445 kts 354°
2026-05-08 21:44 26.98169 -15.76532 30527 ft 442 kts 354°
2026-05-08 21:44 27.01221 -15.76228 30035 ft 439 kts 354°
2026-05-08 21:44 27.04255 -15.75925 29523 ft 436 kts 354°
2026-05-08 21:45 27.07260 -15.75623 29022 ft 432 kts 354°
2026-05-08 21:45 27.10239 -15.75324 28544 ft 427 kts 354°
2026-05-08 21:45 27.13187 -15.75027 28079 ft 423 kts 354°
2026-05-08 21:45 27.16104 -15.74734 27622 ft 419 kts 354°
2026-05-08 21:46 27.18995 -15.74444 27204 ft 416 kts 354°
2026-05-08 21:46 27.21829 -15.74159 26753 ft 413 kts 354°
2026-05-08 21:46 27.24676 -15.73874 26296 ft 409 kts 354°
2026-05-08 21:46 27.27543 -15.73589 25844 ft 406 kts 354°
2026-05-08 21:47 27.30308 -15.73312 25395 ft 404 kts 354°
2026-05-08 21:47 27.33101 -15.73031 24953 ft 401 kts 354°
2026-05-08 21:47 27.35874 -15.72751 24498 ft 399 kts 354°
2026-05-08 21:47 27.38634 -15.72473 24058 ft 397 kts 354°
2026-05-08 21:48 27.41384 -15.72195 23605 ft 396 kts 354°
2026-05-08 21:48 27.44121 -15.71919 23098 ft 394 kts 355°
2026-05-08 21:48 27.46838 -15.71644 22677 ft 390 kts 354°
2026-05-08 21:48 27.49531 -15.71371 22224 ft 387 kts 355°
2026-05-08 21:49 27.52203 -15.71101 21778 ft 384 kts 355°
2026-05-08 21:49 27.54822 -15.70833 21328 ft 373 kts 355°
2026-05-08 21:49 27.57368 -15.70571 20913 ft 362 kts 355°
2026-05-08 21:49 27.59840 -15.70319 20517 ft 353 kts 355°
2026-05-08 21:50 27.62265 -15.70077 20133 ft 346 kts 355°
2026-05-08 21:50 27.64644 -15.69839 19749 ft 342 kts 355°
2026-05-08 21:50 27.67029 -15.69604 19390 ft 349 kts 355°
2026-05-08 21:50 27.69532 -15.69364 18986 ft 368 kts 355°
2026-05-08 21:51 27.72034 -15.69327 18558 ft 351 kts 346°
2026-05-08 21:51 27.74397 -15.69799 17768 ft 339 kts 335°
2026-05-08 21:51 27.76629 -15.70530 17309 ft 330 kts 336°
2026-05-08 21:51 27.78802 -15.71234 16893 ft 320 kts 336°
2026-05-08 21:52 27.80911 -15.71914 16500 ft 310 kts 336°
2026-05-08 21:52 27.82952 -15.72569 16151 ft 301 kts 336°
2026-05-08 21:52 27.84938 -15.73211 15793 ft 293 kts 335°
2026-05-08 21:52 27.86882 -15.73834 15459 ft 288 kts 336°
2026-05-08 21:53 27.88776 -15.74462 15144 ft 279 kts 335°
2026-05-08 21:53 27.90635 -15.75058 14781 ft 276 kts 335°
2026-05-08 21:53 27.92484 -15.75646 14498 ft 278 kts 336°
2026-05-08 21:53 27.94360 -15.76250 14152 ft 283 kts 336°
2026-05-08 21:54 27.96252 -15.76859 13827 ft 283 kts 336°
2026-05-08 21:54 27.98155 -15.77472 13422 ft 286 kts 336°
2026-05-08 21:54 28.00056 -15.78080 13048 ft 281 kts 336°
2026-05-08 21:54 28.01920 -15.78673 12696 ft 277 kts 337°
2026-05-08 21:55 28.03760 -15.79256 12393 ft 273 kts 337°
2026-05-08 21:55 28.05577 -15.79841 12072 ft 271 kts 337°
2026-05-08 21:55 28.07384 -15.80423 11744 ft 269 kts 337°
2026-05-08 21:56 28.10972 -15.81580 11107 ft 270 kts 338°
2026-05-08 21:56 28.12787 -15.82166 10784 ft 271 kts 338°
2026-05-08 21:56 28.14589 -15.82745 10578 ft 265 kts 338°
2026-05-08 21:56 28.16335 -15.83304 10447 ft 257 kts 338°
2026-05-08 21:57 28.18061 -15.83861 10346 ft 262 kts 338°
2026-05-08 21:57 28.19838 -15.84437 10242 ft 268 kts 338°
2026-05-08 21:57 28.21632 -15.85016 10120 ft 268 kts 338°
2026-05-08 21:57 28.23419 -15.85590 9866 ft 264 kts 338°
2026-05-08 21:58 28.25161 -15.86150 9580 ft 256 kts 339°
2026-05-08 21:58 28.26847 -15.86691 9292 ft 248 kts 339°
2026-05-08 21:58 28.28478 -15.87217 9021 ft 240 kts 339°
2026-05-08 21:58 28.30056 -15.87725 8760 ft 232 kts 339°
2026-05-08 21:59 28.31497 -15.88408 8508 ft 217 kts 317°
2026-05-08 21:59 28.32542 -15.89551 8257 ft 204 kts 306°
2026-05-08 21:59 28.33218 -15.90893 8030 ft 189 kts 291°
2026-05-08 21:59 28.33702 -15.92230 7797 ft 179 kts 291°
2026-05-08 22:00 28.34165 -15.93510 7631 ft 175 kts 291°
2026-05-08 22:00 28.34608 -15.94742 7423 ft 159 kts 291°
2026-05-08 22:00 28.35000 -15.95834 7260 ft 143 kts 291°
2026-05-08 22:00 28.35365 -15.96854 7090 ft 138 kts 291°
2026-05-08 22:01 28.35727 -15.97868 6950 ft 139 kts 291°
2026-05-08 22:01 28.36087 -15.98877 6866 ft 137 kts 291°
2026-05-08 22:01 28.36445 -15.99880 6772 ft 138 kts 291°
2026-05-08 22:01 28.36815 -16.00918 6714 ft 144 kts 292°
2026-05-08 22:02 28.37197 -16.01967 6641 ft 143 kts 293°
2026-05-08 22:02 28.37588 -16.03004 6569 ft 142 kts 293°
2026-05-08 22:02 28.37977 -16.04034 6492 ft 141 kts 293°
2026-05-08 22:02 28.38363 -16.05058 6439 ft 141 kts 293°
2026-05-08 22:03 28.38777 -16.06063 6377 ft 141 kts 296°
2026-05-08 22:03 28.39203 -16.07067 6325 ft 141 kts 294°
2026-05-08 22:03 28.39595 -16.08096 6223 ft 145 kts 292°
2026-05-08 22:03 28.39982 -16.09182 6014 ft 151 kts 291°
2026-05-08 22:04 28.40355 -16.10269 5815 ft 145 kts 291°
2026-05-08 22:04 28.40711 -16.11327 5635 ft 143 kts 290°
2026-05-08 22:04 28.41117 -16.12434 5637 ft 151 kts 292°
2026-05-08 22:04 28.41513 -16.13494 5590 ft 146 kts 294°
2026-05-08 22:05 28.41932 -16.14557 5424 ft 151 kts 291°
2026-05-08 22:05 28.42306 -16.15673 5303 ft 146 kts 290°
2026-05-08 22:05 28.42650 -16.16747 5110 ft 147 kts 290°
2026-05-08 22:05 28.42984 -16.17861 4897 ft 148 kts 288°
2026-05-08 22:06 28.43323 -16.18941 4699 ft 146 kts 289°
2026-05-08 22:06 28.43650 -16.20045 4436 ft 148 kts 288°
2026-05-08 22:06 28.43970 -16.21155 4250 ft 148 kts 287°
2026-05-08 22:06 28.44288 -16.22254 3995 ft 146 kts 288°
2026-05-08 22:07 28.44599 -16.23361 3654 ft 151 kts 288°
2026-05-08 22:07 28.45001 -16.24505 3706 ft 156 kts 291°
2026-05-08 22:07 28.45413 -16.25631 3546 ft 153 kts 292°
2026-05-08 22:07 28.45802 -16.26725 3202 ft 148 kts 290°
2026-05-08 22:08 28.46154 -16.27819 2990 ft 144 kts 290°
2026-05-08 22:08 28.46528 -16.28862 2710 ft 144 kts 291°
2026-05-08 22:08 28.46877 -16.29945 2557 ft 143 kts 288°
2026-05-08 22:08 28.47227 -16.30977 2326 ft 141 kts 291°
2026-05-08 22:09 28.47560 -16.31995 2156 ft 133 kts 288°
2026-05-08 22:09 28.47874 -16.32965 2032 ft 124 kts 288°
2026-05-08 22:09 28.48137 -16.33767 2044 ft 87 kts 291°
2026-05-08 22:09 28.48297 -16.34254 2057 ft 51 kts 290°
2026-05-08 22:10 28.48413 -16.34594 2069 ft 42 kts 290°
2026-05-08 22:10 28.48501 -16.34866 2082 ft 33 kts 291°
2026-05-08 22:10 28.48576 -16.35089 2088 ft 29 kts 294°
2026-05-08 22:10 28.48681 -16.35274 2082 ft 25 kts 308°
2026-05-08 22:11 28.48737 -16.35317 2077 ft 10 kts 20°
2026-05-08 22:11 28.48746 -16.35248 2076 ft 10 kts 111°
2026-05-08 22:11 28.48721 -16.35177 2080 ft 10 kts 109°
2026-05-08 22:11 28.48698 -16.35107 2081 ft 9 kts 111°
2026-05-08 22:12 28.48675 -16.35039 2082 ft 9 kts 111°
2026-05-08 22:12 28.48653 -16.34973 2083 ft 9 kts 111°
2026-05-08 22:12 28.48662 -16.34923 2080 ft 7 kts 19°
2026-05-08 22:12 28.48727 -16.34898 2073 ft 11 kts 20°
2026-05-08 22:13 28.48756 -16.34886 2073 ft 0 kts 20°